Location: Oroua River
(40.4333°S, 175.4333°E)
Time: 14:00:04
(UTC+00:00)

Cosmos 1953 - Pass Details

Date: 03 February 2023
Orbit: 527 x 549 km, 82.5° (Epoch: 22 March)

Event Time Altitude Azimuth Distance (km) Brightness Sun altitude
Rises 15:50:34 0° 187° (S) 2,769 6.4 -16.8°
Reaches altitude 10° 15:52:46 10° 185° (S) 1,864 5.5 -16.5°
Maximum altitude 15:56:53 80° 98° (E) 572 2.4 -15.9°
Drops below altitude 10° 16:00:55 10° 10° (N) 1,825 4.7 -15.3°
Enters shadow 16:01:37 - 10° (N) 2,116 5.0 -15.2°
